Regional Weather Roundup
Issued by NWS

Home | Current Version | Previous Version | Text Only | Print | Product List | Glossary Off
Versions: 1 2 3 4 5 6 7 8 9 10 11 12 13 14 15 16 17 18 19 20 21 22 23 24 25 26 27 28 29 30 31 32 33 34 35 36 37 38 39 40 41 42 43 44 45 46 47 48 49 50

000
ASUS44 KMEG 290600
RWRTN
TENNESSEE HOURLY STATE WEATHER ROUNDUP
NATIONAL WEATHER SERVICE MEMPHIS TN
100 AM CDT FRI JUL 29 2016

TNZ002-004-019-021-049-052-054-088>092-290700-
WEST TENNESSEE

CITY           SKY/WX    TMP DP  RH WIND       PRES   REMARKS
MEMPHIS INTL   CLOUDY    78  73  84 VRB7      29.97S
NWS MEMPHIS      N/A     78 N/A N/A MISG        N/A
JACKSON        PTCLDY    77  76  96 SW9       29.97R
DYERSBURG      CLOUDY   N/A N/A N/A MISG        N/A
UNION CITY     MOCLDY    73  72  94 CALM      29.94R
PARIS          PTCLDY    73  72  94 CALM      29.96R
LEXINGTON      CLOUDY    75  73  94 SW7       29.96R
$$

TNZ008-025-027-028-033-062-065-066-290700-
NORTH MIDDLE TENNESSEE

CITY           SKY/WX    TMP DP  RH WIND       PRES   REMARKS
NASHVILLE      CLOUDY    77  73  87 SW5       29.96S
CLARKSVILLE    TSTM      77  72  84 VRB6G24   29.92F VSB 1
COOKEVILLE     CLOUDY    75  73  94 SW7       29.98F
CROSSVILLE     CLOUDY    71  70  96 SW7       30.04R
$$

TNZ061-075-076-078-094-096-097-290700-
SOUTH MIDDLE TENNESSEE

CITY           SKY/WX    TMP DP  RH WIND       PRES   REMARKS
TULLAHOMA      CLOUDY    72  72 100 CALM      30.02S
WINCHESTER     PTCLDY    72  72 100 CALM      30.01S
MCMINNVILLE    CLOUDY    73  73 100 SW3       30.00F
COLUMBIA       CLOUDY   N/A N/A N/A SW8       29.97S
SHELBYVILLE    CLEAR     73  73 100 S5        30.00S
$$

TNZ017-018-042-046-047-290700-
NORTHEAST TENNESSEE

CITY           SKY/WX    TMP DP  RH WIND       PRES   REMARKS
TRI CITIES     CLOUDY    70  68  93 W5        29.99S
$$

TNZ012-013-036-069-073-074-290700-
CENTRAL EAST TENNESSEE

CITY           SKY/WX    TMP DP  RH WIND       PRES   REMARKS
KNOXVILLE      PTCLDY    73  71  93 SW8       29.98R
OAK RIDGE      PTCLDY    73  70  90 CALM      29.99S
GATLINBURG     CLOUDY    73  72  94 CALM      29.98S
$$

TNZ083-085-099-290700-
SOUTHEAST TENNESSEE

CITY           SKY/WX    TMP DP  RH WIND       PRES   REMARKS
CHATTANOOGA    MOCLDY    76  70  82 W7        29.99S
$$

SKY/WX REPORTED AS FAIR MEANS FEW OR NO CLOUDS BELOW
12 THOUSAND FEET.





USA.gov is the U.S. government's official web portal to all federal, state and local government web resources and services.